星链-1564 (STARLINK-1564 )

导读

STARLINK-1564是美国太空探索技术公司星链计划的低轨卫星,于2020年8月7日发射升空,属于星链星座组网的一员。星链星座旨在构建全球卫星互联网服务,该卫星运行于近地轨道,为全球用户提供互联网接入服务,也推动了美国低轨卫星通信网络的部署进程。

基本信息
目录编号:
46058
目录名称:
STARLINK-1564
国际标识:
2020-055AH
轨道中心:
EARTH
卫星名称:
星链-1564
卫星全名:
星链-1564 (STARLINK-1564 )
卫星状态:
在轨 (已飞行2219 天)
发射日期:
2020-08-07 UTC
国别 :
美国 (US)
星等 :
--
轨道信息
数据来源 国际轨道数据 AOE轨道数据
星历时间 2026-09-04T02:04:46+0800
11小时前
查看轨道信息
2026-09-03T08:00:00+0800
1天前
查看轨道信息
半长轴 6848.817km 6848.874km
偏心率 0.0000941 0.0001056
轨道倾角 53.160° 53.159°
近地点辐角 77.698° 79.317°
升交点赤经 6.819° 10.329°
平近点角 282.413° 84.598°
近地点 470.035km 470.013km
远地点 471.325km 471.461km
周期 94.012分钟 94.013分钟
每日圈数 15.317204 15.317012
详细信息
固有亮度:
5
最大亮度:
2.5
卫星平台:
Starlink V1.0
覆盖范围:
全球
运营商:
太空探索技术公司
运营商所在国:
美国
制造商(研发单位):
太空探索技术公司
制造商所在国:
美国
使用方式:
暂无
卫星简介
星链(Starlink)计划是由太空探索技术公司(SpaceX)提出的一个巨型低轨卫星互联网星座项目,计划在2019年至2024年间在太空搭建由约1.2万颗卫星组成的“星链”网络,其中1584颗将部署在地球上空550千米处的近地轨道,并从2020年开始工作。该卫星仍在工作。
2D轨道图
3D轨道图
轨道高度分析图
轨道倾角分析图
轨道综合分析图
查看轨道综合分析图
交会数据列表
事件ID 空间交会对象 最接近时刻(TCA) 交会距离 交会风险概率(CRP) 交会风险指数(CRI) 操作
CDM_260903-143504-605805-367721
2026-09-03T
14:35:59+0000
2.575 km
极远距离
1.535283E-6 低风险 0.39
CDM_260904-153504-605806-881621
2026-09-04T
15:35:18+0000
2.667 km
极远距离
1.34159E-6 低风险 0.38
CDM_260904-153904-605806-820821
2026-09-04T
15:39:51+0000
2.847 km
极远距离
1.329713E-6 低风险 0.37
CDM_260903-042404-605806-876721
2026-09-03T
04:24:27+0000
2.731 km
极远距离
1.28063E-6 低风险 0.37
CDM_260902-212104-605804-743722
2026-09-02T
21:21:53+0000
2.766 km
极远距离
1.247774E-6 低风险 0.37
CDM_260902-102004-605806-922421
2026-09-02T
10:20:12+0000
2.995 km
极远距离
1.223414E-6 低风险 0.37
CDM_260904-153404-605806-974121
2026-09-04T
15:34:14+0000
2.856 km
极远距离
1.186365E-6 低风险 0.36
CDM_260905-001704-605806-524521
2026-09-05T
00:17:36+0000
2.995 km
极远距离
1.071193E-6 低风险 0.36
CDM_260904-071004-605805-904221
2026-09-04T
07:10:18+0000
2.808 km
极远距离
1.021939E-6 低风险 0.35